Hattiesburg, MS

11:27 AM CST on February 07, 2016 (GMT -0600)
Chain Municipal

Weather History for KHBG - December, 2012

Change the Weather History Date:

Thursday, December 13, 2012

  Actual Average Record
Temperature  
Mean Temperature 46 °F 51 °F  
Max Temperature 63 °F 62 °F 81 °F (2015)
Min Temperature 28 °F 40 °F 7 °F (1962)
Degree Days  
Heating Degree Days 19 15  
Month to date heating degree days 78 177  
Since 1 July heating degree days 463 505  
Cooling Degree Days 0 0  
Month to date cooling degree days 18 12  
Year to date cooling degree days 2732 2402  
Moisture  
Dew Point 32 °F    
Average Humidity 64    
Maximum Humidity 92    
Minimum Humidity 36    
Precipitation  
Precipitation 0.00 in 0.15 in 2.97 in (2001)
Month to date precipitation 1.18 2.09  
Year to date precipitation 62.02 56.35  
Sea Level Pressure  
Sea Level Pressure 30.32 in    
Wind  
Wind Speed 1 mph (North)    
Max Wind Speed 7 mph    
Max Gust Speed -    
Visibility 10 miles    
Events      
T = Trace of Precipitation, MM = Missing Value Source: NWS Daily Summary

Daily Weather History Graph

Daily Weather History Graph

Search for Another Location

Airport or City:

Trip Planner

Search our weather history database for the weather conditions in past years. The results will help you decide how hot, cold, wet, or windy it might be!

Date:

Astronomy

Dec. 13, 2012 Rise Set
Actual Time 6:47 AM CST 4:55 PM CST
Civil Twilight 6:20 AM CST 5:22 PM CST
Nautical Twilight 5:50 AM CST 5:52 PM CST
Astronomical Twilight 5:20 AM CST 6:22 PM CST
Moon 6:56 AM CST (12/13) 5:36 PM CST (12/13)
Length of Visible Light 11h 01m
Length of Day
10h 08m
New Moon, 0% of the Moon is Illuminated
Dec 13
New Moon
Dec 19
First Quarter
Dec 28
Full
Jan 4
Last Quarter
Jan 11
New

Hourly Weather History & Observations

Time (CST) Temp. Windchill Dew Point Humidity Pressure Visibility Wind Dir Wind Speed Gust Speed Precip Events Conditions
12:53 AM 30.9 °F - 28.9 °F 92% 30.30 in 10.0 mi Calm Calm - N/A   Clear
1:53 AM 30.9 °F - 28.0 °F 89% 30.30 in 10.0 mi Calm Calm - N/A   Clear
2:53 AM 30.0 °F 26.5 °F 27.0 °F 88% 30.30 in 10.0 mi WNW 3.5 mph - N/A   Clear
3:53 AM 30.0 °F - 27.0 °F 88% 30.30 in 10.0 mi Calm Calm - N/A   Clear
4:53 AM 30.0 °F - 27.0 °F 88% 30.32 in 10.0 mi Calm Calm - N/A   Clear
5:53 AM 28.9 °F 25.2 °F 26.1 °F 89% 30.33 in 10.0 mi NW 3.5 mph - N/A   Clear
6:53 AM 30.0 °F - 26.1 °F 85% 30.36 in 10.0 mi Calm Calm - N/A   Clear
7:53 AM 35.1 °F - 30.0 °F 82% 30.37 in 10.0 mi Calm Calm - N/A   Clear
8:53 AM 41.0 °F - 30.0 °F 65% 30.38 in 10.0 mi Calm Calm - N/A   Clear
9:53 AM 48.9 °F - 33.1 °F 54% 30.37 in 10.0 mi NNE 4.6 mph - N/A   Clear
10:53 AM 54.0 °F - 35.1 °F 49% 30.37 in 10.0 mi ENE 4.6 mph - N/A   Clear
11:53 AM 57.0 °F - 37.0 °F 47% 30.34 in 10.0 mi Variable 5.8 mph - N/A   Clear
12:53 PM 59.0 °F - 37.0 °F 44% 30.30 in 10.0 mi ENE 6.9 mph - N/A   Clear
1:53 PM 62.1 °F - 37.0 °F 39% 30.27 in 10.0 mi Variable 5.8 mph - N/A   Clear
2:53 PM 62.1 °F - 36.0 °F 38% 30.27 in 10.0 mi Calm Calm - N/A   Clear
3:53 PM 62.1 °F - 36.0 °F 38% 30.27 in 10.0 mi Calm Calm - N/A   Clear
7:53 PM 42.1 °F - 37.9 °F 85% 30.28 in 10.0 mi Calm Calm - N/A   Clear
8:53 PM 39.0 °F - 37.0 °F 93% 30.31 in 10.0 mi Calm Calm - N/A   Clear
9:53 PM 37.9 °F - 35.1 °F 89% 30.32 in 10.0 mi Calm Calm - N/A   Clear
10:53 PM 37.0 °F - 34.0 °F 89% 30.32 in 10.0 mi Calm Calm - N/A   Clear